Fort Lauderdale, FL

6:45 PM EST on December 15, 2019 (GMT -0500)
Fort Lauderdale Executive

Weather History for KFXE - October, 2019

Change the Weather History Date:

Thursday, October 17, 2019

  Actual Average Record
Temperature  
Mean Temperature 82 °F -  
Max Temperature 90 °F 86 °F 95 °F (1974)
Min Temperature 75 °F 70 °F 53 °F (1977)
Cooling Degree Days 18    
Growing Degree Days 32 (Base 50)    
Moisture  
Dew Point 75 °F    
Average Humidity 84    
Maximum Humidity 97    
Minimum Humidity 59    
Precipitation  
Precipitation 0.06 in - - ()
Sea Level Pressure  
Sea Level Pressure 29.91 in    
Wind  
Wind Speed 5 mph ()    
Max Wind Speed 10 mph    
Max Gust Speed -    
Visibility 9.9 miles    
Events Rain , Thunderstorm    
Averages and records for this station are not official NWS values.
T = Trace of Precipitation, MM = Missing Value Source: Averaged Metar Reports

Daily Weather History Graph

Daily Weather History Graph

Search for Another Location

Airport or City:

Astronomy

Oct. 17, 2019 Rise Set
Actual Time 7:20 AM EDT 6:51 PM EDT
Civil Twilight 6:57 AM EDT 7:14 PM EDT
Nautical Twilight 6:30 AM EDT 7:41 PM EDT
Astronomical Twilight 6:03 AM EDT 8:08 PM EDT
Moon 9:39 PM EDT (10/17) 10:34 AM EDT (10/17)
Length of Visible Light 12h 16m
Length of Day
11h 30m
Waning Gibbous, 87% of the Moon is Illuminated
Oct 17
Waning Gibbous
Oct 21
Last Quarter
Oct 27
New
Nov 4
First Quarter
Nov 12
Full

Hourly Weather History & Observations

Time (EDT) Temp. Heat Index Dew Point Humidity Pressure Visibility Wind Dir Wind Speed Gust Speed Precip Events Conditions
12:53 AM 78.1 °F - 73.9 °F 87% 29.91 in 10.0 mi West 8.1 mph - N/A   Clear
1:53 AM 78.1 °F - 73.9 °F 87% 29.91 in 10.0 mi West 8.1 mph - N/A   Clear
2:53 AM 77.0 °F - 73.9 °F 90% 29.91 in 10.0 mi West 5.8 mph - N/A   Clear
3:53 AM 75.9 °F - 73.9 °F 94% 29.90 in 10.0 mi WSW 4.6 mph - N/A   Clear
4:53 AM 75.0 °F - 73.9 °F 96% 29.89 in 10.0 mi WSW 4.6 mph - N/A   Clear
5:53 AM 75.0 °F - 73.9 °F 96% 29.90 in 10.0 mi WSW 4.6 mph - N/A   Clear
6:53 AM 75.0 °F - 73.9 °F 96% 29.91 in 10.0 mi WSW 4.6 mph - N/A   Clear
7:53 AM 75.9 °F - 75.0 °F 97% 29.93 in 10.0 mi WSW 4.6 mph - N/A   Clear
8:53 AM 79.0 °F - 77.0 °F 94% 29.94 in 10.0 mi West 6.9 mph - N/A   Scattered Clouds
9:53 AM 80.1 °F 85.8 °F 77.0 °F 90% 29.96 in 10.0 mi West 8.1 mph - 0.00 in   Scattered Clouds
10:53 AM 84.0 °F 92.6 °F 75.9 °F 76% 29.96 in 10.0 mi West 8.1 mph - N/A   Scattered Clouds
11:53 AM 86.0 °F 95.1 °F 75.0 °F 70% 29.94 in 10.0 mi Variable 3.5 mph - N/A   Scattered Clouds
12:53 PM 87.1 °F 95.4 °F 73.9 °F 65% 29.92 in 10.0 mi West 8.1 mph - N/A   Scattered Clouds
1:53 PM 90.0 °F 99.0 °F 73.9 °F 59% 29.90 in 10.0 mi Variable 6.9 mph - N/A   Scattered Clouds
2:53 PM 86.0 °F 93.8 °F 73.9 °F 67% 29.88 in 10.0 mi SW 10.4 mph - N/A   Mostly Cloudy
3:53 PM 87.1 °F 94.5 °F 73.0 °F 63% 29.88 in 10.0 mi SW 10.4 mph - N/A   Mostly Cloudy
4:34 PM 81.0 °F 86.2 °F 73.9 °F 79% 29.87 in 7.0 mi WSW 5.8 mph - 0.05 in Rain , Thunderstorm Heavy Thunderstorms and Rain
4:53 PM 82.0 °F 90.2 °F 77.0 °F 85% 29.88 in 10.0 mi SW 6.9 mph - 0.06 in Thunderstorm Thunderstorm
5:53 PM 82.0 °F 90.2 °F 77.0 °F 85% 29.90 in 10.0 mi North 3.5 mph - N/A Thunderstorm Mostly Cloudy
6:53 PM 79.0 °F - 75.0 °F 88% 29.89 in 10.0 mi East 4.6 mph - N/A   Scattered Clouds
7:53 PM 79.0 °F - 75.0 °F 88% 29.90 in 10.0 mi Calm Calm - N/A   Clear
8:53 PM 79.0 °F - 75.0 °F 88% 29.91 in 10.0 mi South 3.5 mph - N/A   Clear
9:53 PM 79.0 °F - 75.0 °F 88% 29.92 in 10.0 mi Calm Calm - N/A   Clear
10:53 PM 79.0 °F - 75.0 °F 88% 29.93 in 10.0 mi Calm Calm - N/A   Clear
11:53 PM 78.1 °F - 75.0 °F 90% 29.93 in 10.0 mi Calm Calm - N/A   Clear